Regional Weather Roundup
Issued by NWS

Home | Current Version | Previous Version | Text Only | Print | Product List | Glossary On
Versions: 1 2 3 4 5 6 7 8 9 10 11 12 13 14 15 16 17 18 19 20 21 22 23 24 25 26 27 28 29 30 31 32 33 34 35 36 37 38 39 40 41 42 43 44 45 46 47 48 49 50
000
ASUS43 KOAX 160802
RWRNE

WEATHER ROUNDUP FOR NEBRASKA
NATIONAL WEATHER SERVICE OMAHA NE
300 AM CDT TUE SEP 16 2014

NOTES: SATELLITE DATA IS BEING USED TO AUGMENT CLOUD COVER ABOVE
       12000 FEET.
       "FAIR" INDICATES FEW OR NO CLOUDS BELOW 12,000 FEET WITH NO
       SIGNIFICANT WEATHER AND/OR OBSTRUCTIONS TO VISIBILITY.

  * THESE STATIONS DO NOT REPORT WEATHER SUCH AS RAIN...SNOW OR FOG.

NEZ001>004-019>022-054>056-160900-
NEBRASKA PANHANDLE

CITY           SKY/WX    TMP DP  RH WIND       PRES   REMARKS
SCOTTSBLUFF    PTCLDY    51  49  92 E9        30.12F
ALLIANCE       PTCLDY    51  46  83 S8        30.14F
CHADRON        CLEAR     57  48  72 CALM      30.08S
KIMBALL        CLEAR     49  49  98 SW8       30.16F
SIDNEY         PTCLDY    53  50  89 S12       30.18F
$$

NEZ057>060-069>072-079>082-160900-
SOUTHWEST NEBRASKA

CITY           SKY/WX    TMP DP  RH WIND       PRES   REMARKS
NORTH PLATTE   PTCLDY    50  42  74 SE7       30.23S
IMPERIAL       CLEAR     51  44  77 S8        30.22F
LEXINGTON      CLEAR     47  43  87 SE7       30.24F FOG
MCCOOK         CLEAR     50  43  77 SE7       30.25S
OGALLALA       CLEAR     51  46  80 S5        30.20F
$$

NEZ005>010-023>029-035>040-094-160900-
NORTH CENTRAL NEBRASKA

CITY           SKY/WX    TMP DP  RH WIND       PRES   REMARKS
VALENTINE      CLEAR     51  42  71 S10       30.16F
AINSWORTH      CLEAR     47  40  78 S12       30.18F
BROKEN BOW     CLEAR     38  36  92 SE3       30.23F
O`NEILL        CLEAR     46  42  86 S8        30.22F
ORD            CLEAR     43  40  89 CALM      30.23F
THEDFORD       CLEAR     51  43  73 S10       30.21S
$$

NEZ041-046>049-061>064-073>077-083>087-160900-
SOUTH CENTRAL NEBRASKA

CITY           SKY/WX    TMP DP  RH WIND       PRES   REMARKS
GRAND ISLAND   CLEAR     46  42  86 S6        30.26F
AURORA         CLEAR     45  42  89 CALM      30.27S
HASTINGS       CLEAR     48  42  80 S5        30.26S
HEBRON         CLEAR     42  40  92 CALM      30.27F
HOLDREGE       CLEAR     46  42  87 CALM      30.25F
KEARNEY *      CLEAR     45  39  81 SE6       30.25F
$$

NEZ011>018-030>034-042>045-160900-
NORTHEAST NEBRASKA

CITY           SKY/WX    TMP DP  RH WIND       PRES   REMARKS
NORFOLK        CLEAR     42  40  92 CALM      30.25F
ALBION         CLEAR     38  36  91 CALM      30.25F
BLAIR          CLEAR     49  44  84 CALM      30.26F
COLUMBUS *     CLEAR     39  37  93 CALM      30.28S
FREMONT        CLEAR     45  43  95 CALM      30.27F FOG
TEKAMAH        CLEAR     41  39  93 S3        30.27S
WAYNE          CLEAR     36  36  98 CALM      30.26S
$$

NEZ050>053-065>068-078-088>093-160900-
SOUTHEAST NEBRASKA

CITY           SKY/WX    TMP DP  RH WIND       PRES   REMARKS
LINCOLN        CLEAR     41  39  93 CALM      30.28F
OMAHA EPPLEY   PTCLDY    48  46  93 CALM      30.29R FOG
BEATRICE       CLEAR     42  41  97 CALM      30.27F
FALLS CITY     CLEAR     45  43  93 NW3       30.26F
NEBRASKA CITY  CLEAR     50  40  69 CALM      30.27F
PLATTSMOUTH    CLEAR     47  43  85 CALM      30.27F
$$

NEZ044-045-051>053-067-160900-
OMAHA AREA

CITY           SKY/WX    TMP DP  RH WIND       PRES   REMARKS
OMAHA EPPLEY   PTCLDY    48  46  93 CALM      30.29R FOG
BLAIR          CLEAR     49  44  84 CALM      30.26F
FREMONT        CLEAR     45  43  95 CALM      30.27F FOG
MILLARD        FOG       46  44  96 CALM      30.28S VSB 3/4
OFFUTT AFB     CLEAR     40  40 100 CALM      30.27S
PLATTSMOUTH    CLEAR     47  43  85 CALM      30.27F
WAHOO          FAIR      41  39  90 CALM      30.27S FOG
$$


USA.gov is the U.S. government's official web portal to all federal, state and local government web resources and services.